Location: Wavehorne
(51.0500°N, 0.8333°E)
Time: 17:36:34
(UTC+00:00)

NOSS 2-2 (C) - Pass Details

Date: 31 October 2021
Orbit: 450 x 1755 km, 63.3° (Epoch: 01 December)

Event Time Altitude Azimuth Distance (km) Brightness Sun altitude
Rises 19:46:20 0° 257° (WSW) 2,457 7.5 -30.8°
Reaches altitude 10° 19:48:31 10° 271° (W) 1,615 6.5 -31.1°
Enters shadow 19:49:39 17° 284° (WNW) 1,250 5.8 -31.3°
